User: anonymous   Login
Location: Azul
(36.7830°S, 59.8500°W)
Time: 02:43:20
(UTC-03:00)
Language:

RS-44 - Orbit

View from above orbital plane
View from above orbital plane
View from above satellite
View from above satellite

Ground track
Ground track

The orbit is defined by the following mean orbital elements,

1 44909U          26074.81427103 +.00000000 +00000-0 +36750-4 0 00009
2 44909  82.5215  41.7436 0217672   3.0207 357.2151 12.79747585    02
Epoch (UTC): 15 March 2026 19:32:33
Eccentricity: 0.0217672
inclination: 82.5215°
perigee height: 1174 km
apogee height: 1511 km
right ascension of ascending node: 41.7436°
argument of perigee: 3.0207°
revolutions per day: 12.79747585
mean anomaly at epoch: 357.2151°

The dashed part of the orbit path shows where the satellite is in the earth's shadow,  

DLR